| time (UTC) | temp F | wind direction | speed knots | gust knots | rain 1hr in | rain 24hr in | rain mn in | humidity % | barometer mb |
| 20260901172158 | 46 | 240 | 13.9 | 25.2 | 0.00 | 0.00 | 0.00 | 93 | |
| 20260901162300 | 46 | 240 | 17.4 | 26.9 | 0.00 | 0.00 | 0.00 | 93 | |
| 20260901151958 | 48 | 250 | 25.2 | 33.0 | 0.00 | 0.00 | 0.00 | 87 | |
| 20260901142158 | 48 | 240 | 20.9 | 0.0 | 0.00 | 0.00 | 0.00 | 87 | |
| 20260901132058 | 46 | 240 | 25.2 | 0.0 | 0.00 | 0.00 | 0.00 | 87 | |
| 20260901121958 | 46 | 250 | 28.7 | 39.1 | 0.00 | 0.00 | 0.00 | 93 | |
| 20260901112059 | 45 | 260 | 20.9 | 28.7 | 0.00 | 0.00 | 0.00 | 99 | |
| 20260901102258 | 43 | 260 | 26.9 | 39.1 | 0.00 | 0.00 | 0.00 | 99 | |
| 20260901091958 | 43 | 250 | 37.4 | 0.0 | 0.00 | 0.00 | 0.00 | 99 | |
| 20260901082201 | 43 | 240 | 34.8 | 46.9 | 0.00 | 0.00 | 0.00 | 99 | |
| 20260901072157 | 43 | 230 | 34.8 | 51.3 | 0.00 | 0.00 | 0.00 | 99 | |
| 20260901061957 | 41 | 230 | 39.1 | 52.1 | 0.00 | 0.00 | 0.00 | 99 | |
| 20260901052041 | 41 | 230 | 45.2 | 53.9 | 0.00 | 0.00 | 0.00 | 99 | |
| 20260901042257 | 41 | 240 | 39.1 | 48.7 | 0.00 | 0.00 | 0.00 | 99 | |
| 20260901031957 | 41 | 230 | 33.0 | 0.0 | 0.00 | 0.00 | 0.00 | 99 | |
| 20260901022158 | 43 | 220 | 40.8 | 52.1 | 0.00 | 0.00 | 0.00 | 99 | |
| 20260901012201 | 45 | 210 | 28.7 | 45.2 | 0.00 | 0.00 | 0.00 | 93 | |
| 20260901001957 | 45 | 220 | 20.9 | 39.1 | 0.00 | 0.00 | 0.00 | 99 | |
| 20260831232113 | 46 | 230 | 25.2 | 40.8 | 0.00 | 0.00 | 0.00 | 93 | |
| 20260831222259 | 48 | 240 | 31.3 | 0.0 | 0.00 | 0.00 | 0.00 | 87 | |
| 20260831211958 | 48 | 210 | 20.9 | 40.8 | 0.00 | 0.00 | 0.00 | 87 | |
| 20260831202158 | 48 | 180 | 20.9 | 37.4 | 0.00 | 0.00 | 0.00 | 93 | |
| 20260831192202 | 50 | 190 | 19.1 | 31.3 | 0.00 | 0.00 | 0.00 | 93 | |
| 20260831181959 | 48 | 200 | 15.6 | 34.8 | 0.00 | 0.00 | 0.00 | 93 |